time, Switch, Flow(0), Analog(2)
yyyy/mm/dd HH:MM:SS.fff, True=FILTERED|False=TOTAL, L/min, V
2023/06/18 01:00:00.595, True, 4.452, 0.129549
2023/06/18 01:00:01.099, True, 4.643, 0.131304
2023/06/18 01:00:01.595, True, 4.717, 0.128786
2023/06/18 01:00:02.099, True, 4.310, 0.130846
2023/06/18 01:00:02.603, True, 4.316, 0.127260
2023/06/18 01:00:03.107, True, 4.306, 0.128862
2023/06/18 01:00:03.603, True, 4.043, 0.130694
2023/06/18 01:00:04.107, True, 3.317, 0.129320
2023/06/18 01:00:04.611, True, 2.983, 0.128786
2023/06/18 01:00:05.107, True, 2.696, 0.127718
2023/06/18 01:00:05.611, True, 2.986, 0.127871
2023/06/18 01:00:06.107, True, 2.695, 0.128862
2023/06/18 01:00:06.611, True, 2.652, 0.129931
2023/06/18 01:00:07.115, True, 2.986, 0.129091
2023/06/18 01:00:07.618, True, 2.651, 0.127794
2023/06/18 01:00:08.114, True, 2.696, 0.131456
2023/06/18 01:00:08.619, True, 2.985, 0.130541
2023/06/18 01:00:09.115, True, 2.695, 0.131456
2023/06/18 01:00:09.618, True, 2.984, 0.130694
2023/06/18 01:00:10.122, True, 2.985, 0.128023
2023/06/18 01:00:10.619, True, 2.698, 0.129397
2023/06/18 01:00:11.122, True, 2.982, 0.128710
2023/06/18 01:00:11.627, True, 2.984, 0.127947
2023/06/18 01:00:12.123, True, 2.696, 0.128405
2023/06/18 01:00:12.626, True, 2.653, 0.131075
2023/06/18 01:00:13.131, True, 2.652, 0.129931
2023/06/18 01:00:13.627, True, 2.696, 0.129168
2023/06/18 01:00:14.130, True, 2.984, 0.128481
2023/06/18 01:00:14.635, True, 2.657, 0.130236
2023/06/18 01:00:15.131, True, 3.027, 0.129168
2023/06/18 01:00:15.634, True, 2.654, 0.130465
2023/06/18 01:00:16.139, True, 2.984, 0.129702
2023/06/18 01:00:16.635, True, 2.696, 0.131075
2023/06/18 01:00:17.139, True, 2.983, 0.130465
2023/06/18 01:00:17.643, True, 2.653, 0.132601
2023/06/18 01:00:18.147, True, 2.652, 0.130846
2023/06/18 01:00:18.643, True, 2.696, 0.130541
2023/06/18 01:00:19.146, True, 2.984, 0.129320
2023/06/18 01:00:19.651, True, 2.653, 0.129549
2023/06/18 01:00:20.147, True, 3.033, 0.129549
2023/06/18 01:00:20.651, True, 2.652, 0.128557
2023/06/18 01:00:21.155, True, 2.653, 0.132753
2023/06/18 01:00:21.651, True, 2.696, 0.130083
2023/06/18 01:00:22.155, True, 2.984, 0.129549
2023/06/18 01:00:22.651, True, 2.696, 0.129931
2023/06/18 01:00:23.155, True, 2.984, 0.130388
2023/06/18 01:00:23.659, True, 2.988, 0.130236
2023/06/18 01:00:24.163, True, 2.650, 0.129931
2023/06/18 01:00:24.659, True, 2.696, 0.128405
2023/06/18 01:00:25.163, True, 2.984, 0.130312
2023/06/18 01:00:25.666, True, 2.653, 0.130236
2023/06/18 01:00:26.163, True, 2.696, 0.128939
2023/06/18 01:00:26.666, True, 2.653, 0.131685
2023/06/18 01:00:27.171, True, 2.652, 0.131685
2023/06/18 01:00:27.675, True, 2.653, 0.130846
2023/06/18 01:00:28.171, True, 3.032, 0.131685
2023/06/18 01:00:28.674, True, 2.652, 0.130999
2023/06/18 01:00:29.179, True, 2.653, 0.132143
2023/06/18 01:00:29.675, True, 2.696, 0.132067
2023/06/18 01:00:30.178, True, 2.653, 0.132219
2023/06/18 01:00:30.675, True, 2.696, 0.132372
2023/06/18 01:00:31.179, True, 2.653, 0.135119
2023/06/18 01:00:31.682, True, 2.985, 0.132219
2023/06/18 01:00:32.179, True, 2.695, 0.132067
2023/06/18 01:00:32.683, True, 2.654, 0.131075
2023/06/18 01:00:33.178, True, 2.695, 0.134966
2023/06/18 01:00:33.682, True, 2.653, 0.132830
2023/06/18 01:00:34.187, True, 2.653, 0.133822
2023/06/18 01:00:34.683, True, 2.695, 0.134127
2023/06/18 01:00:35.187, True, 2.984, 0.137331
2023/06/18 01:00:35.690, True, 2.659, 0.136492
2023/06/18 01:00:36.187, True, 2.692, 0.136034
2023/06/18 01:00:36.691, True, 2.650, 0.137484
2023/06/18 01:00:37.195, True, 2.985, 0.137255
2023/06/18 01:00:37.691, True, 2.695, 0.137484
2023/06/18 01:00:38.195, True, 2.653, 0.134890
2023/06/18 01:00:38.699, True, 2.655, 0.135042
2023/06/18 01:00:39.195, True, 2.693, 0.138247
2023/06/18 01:00:39.699, True, 2.985, 0.138323
2023/06/18 01:00:40.203, True, 2.656, 0.136797
2023/06/18 01:00:40.699, True, 2.694, 0.135271
2023/06/18 01:00:41.203, True, 2.650, 0.136492
2023/06/18 01:00:41.706, True, 2.985, 0.135271
2023/06/18 01:00:42.211, True, 2.653, 0.137636
2023/06/18 01:00:42.706, True, 2.696, 0.136034
2023/06/18 01:00:43.211, True, 2.984, 0.135500
2023/06/18 01:00:43.715, True, 2.653, 0.137713
2023/06/18 01:00:44.211, True, 2.695, 0.137026
2023/06/18 01:00:44.715, True, 2.658, 0.134966
2023/06/18 01:00:45.211, True, 2.695, 0.137713
2023/06/18 01:00:45.715, True, 2.982, 0.138018
2023/06/18 01:00:46.218, True, 2.651, 0.138781
2023/06/18 01:00:46.715, True, 2.697, 0.138247
2023/06/18 01:00:47.218, True, 2.652, 0.137331
2023/06/18 01:00:47.723, True, 2.653, 0.138552
2023/06/18 01:00:48.219, True, 2.698, 0.136187
2023/06/18 01:00:48.722, True, 2.650, 0.136263
2023/06/18 01:00:49.227, True, 2.984, 0.136492
2023/06/18 01:00:49.722, True, 2.696, 0.137255
2023/06/18 01:00:50.226, True, 2.653, 0.137179
2023/06/18 01:00:50.730, True, 2.658, 0.137255
2023/06/18 01:00:51.227, True, 3.027, 0.135653
2023/06/18 01:00:51.730, True, 2.653, 0.136110
2023/06/18 01:00:52.234, True, 2.984, 0.138018
2023/06/18 01:00:52.730, True, 2.699, 0.135195
2023/06/18 01:00:53.234, True, 2.649, 0.134813
2023/06/18 01:00:53.738, True, 2.653, 0.138705
2023/06/18 01:00:54.242, True, 2.984, 0.136797
2023/06/18 01:00:54.739, True, 2.696, 0.134203
2023/06/18 01:00:55.243, True, 2.655, 0.136492
2023/06/18 01:00:55.746, True, 2.983, 0.137102
2023/06/18 01:00:56.242, True, 2.698, 0.136187
2023/06/18 01:00:56.746, True, 2.651, 0.133211
2023/06/18 01:00:57.251, True, 2.989, 0.135653
2023/06/18 01:00:57.746, True, 2.692, 0.137102
2023/06/18 01:00:58.251, True, 2.653, 0.135271
2023/06/18 01:00:58.754, True, 2.985, 0.135805
2023/06/18 01:00:59.251, True, 2.695, 0.136873
2023/06/18 01:00:59.754, True, 2.989, 0.136110
2023/06/18 01:01:00.259, True, 2.650, 0.134432
2023/06/18 01:01:00.755, True, 3.037, 0.136873
2023/06/18 01:01:01.258, True, 2.653, 0.138628
2023/06/18 01:01:01.762, True, 2.650, 0.136263
2023/06/18 01:01:02.258, True, 2.695, 0.134966
2023/06/18 01:01:02.763, True, 2.655, 0.133898
2023/06/18 01:01:03.267, True, 2.979, 0.137179
2023/06/18 01:01:03.762, True, 2.699, 0.135653
2023/06/18 01:01:04.266, True, 2.654, 0.135119
2023/06/18 01:01:04.770, True, 2.982, 0.136187
2023/06/18 01:01:05.267, True, 2.694, 0.136339
2023/06/18 01:01:05.771, True, 2.985, 0.136568
2023/06/18 01:01:06.275, True, 2.656, 0.136645
2023/06/18 01:01:06.770, True, 2.692, 0.135195
2023/06/18 01:01:07.275, True, 2.985, 0.137255
2023/06/18 01:01:07.778, True, 2.657, 0.138170
2023/06/18 01:01:08.274, True, 3.033, 0.135348
2023/06/18 01:01:08.779, True, 2.649, 0.136568
2023/06/18 01:01:09.283, True, 2.652, 0.136416
2023/06/18 01:01:09.778, True, 2.701, 0.135729
2023/06/18 01:01:10.282, True, 2.647, 0.135195
2023/06/18 01:01:10.787, True, 2.653, 0.136568
2023/06/18 01:01:11.282, True, 2.696, 0.135576
2023/06/18 01:01:11.787, True, 2.984, 0.136110
2023/06/18 01:01:12.291, True, 2.653, 0.133974
2023/06/18 01:01:12.787, True, 3.034, 0.136492
2023/06/18 01:01:13.291, True, 2.655, 0.137179
2023/06/18 01:01:13.794, True, 2.649, 0.132753
2023/06/18 01:01:14.291, True, 2.696, 0.135195
2023/06/18 01:01:14.794, True, 2.653, 0.134585
2023/06/18 01:01:15.290, True, 3.033, 0.134737
2023/06/18 01:01:15.795, True, 2.653, 0.136187
2023/06/18 01:01:16.298, True, 2.653, 0.136492
2023/06/18 01:01:16.795, True, 2.696, 0.136110
2023/06/18 01:01:17.298, True, 2.984, 0.137102
2023/06/18 01:01:17.802, True, 2.654, 0.134051
2023/06/18 01:01:18.299, True, 2.696, 0.134203
2023/06/18 01:01:18.802, True, 2.984, 0.133669
2023/06/18 01:01:19.306, True, 2.652, 0.132601
2023/06/18 01:01:19.802, True, 2.696, 0.133440
2023/06/18 01:01:20.307, True, 2.984, 0.133898
2023/06/18 01:01:20.810, True, 2.653, 0.134127
2023/06/18 01:01:21.307, True, 2.695, 0.134890
2023/06/18 01:01:21.811, True, 2.985, 0.137484
2023/06/18 01:01:22.314, True, 2.653, 0.136034
2023/06/18 01:01:22.811, True, 2.696, 0.134737
2023/06/18 01:01:23.314, True, 2.652, 0.135348
2023/06/18 01:01:23.818, True, 2.653, 0.134279
2023/06/18 01:01:24.323, True, 2.985, 0.132982
2023/06/18 01:01:24.818, True, 2.696, 0.135653
2023/06/18 01:01:25.323, True, 2.652, 0.131991
2023/06/18 01:01:25.827, True, 2.653, 0.135653
2023/06/18 01:01:26.322, True, 3.033, 0.132830
2023/06/18 01:01:26.826, True, 2.653, 0.135958
2023/06/18 01:01:27.330, True, 2.655, 0.131685
2023/06/18 01:01:27.834, True, 2.651, 0.133211
2023/06/18 01:01:28.331, True, 3.033, 0.134279
2023/06/18 01:01:28.835, True, 2.653, 0.136645
2023/06/18 01:01:29.338, True, 2.652, 0.136721
2023/06/18 01:01:29.842, True, 2.654, 0.131991
2023/06/18 01:01:30.339, True, 2.695, 0.133440
2023/06/18 01:01:30.842, True, 2.653, 0.137560
2023/06/18 01:01:31.346, True, 2.652, 0.134890
2023/06/18 01:01:31.842, True, 2.696, 0.131151
2023/06/18 01:01:32.346, True, 2.653, 0.135882
2023/06/18 01:01:32.851, True, 2.653, 0.134356
2023/06/18 01:01:33.354, True, 2.984, 0.136034
2023/06/18 01:01:33.850, True, 2.696, 0.132753
2023/06/18 01:01:34.354, True, 2.653, 0.133898
2023/06/18 01:01:34.850, True, 2.700, 0.132677
2023/06/18 01:01:35.354, True, 2.979, 0.136110
2023/06/18 01:01:35.858, True, 2.654, 0.133669
2023/06/18 01:01:36.354, True, 2.695, 0.131914
2023/06/18 01:01:36.858, True, 2.653, 0.135042
2023/06/18 01:01:37.362, True, 2.653, 0.134890
2023/06/18 01:01:37.858, True, 2.700, 0.132982
2023/06/18 01:01:38.362, True, 2.984, 0.136645
2023/06/18 01:01:38.867, True, 2.649, 0.134432
2023/06/18 01:01:39.363, True, 2.696, 0.132296
2023/06/18 01:01:39.867, True, 2.984, 0.134432
2023/06/18 01:01:40.370, True, 2.653, 0.133669
2023/06/18 01:01:40.874, True, 2.653, 0.133288
2023/06/18 01:01:41.370, True, 2.695, 0.136263
2023/06/18 01:01:41.874, True, 2.985, 0.132906
2023/06/18 01:01:42.370, True, 2.696, 0.133440
2023/06/18 01:01:42.874, True, 2.652, 0.133516
2023/06/18 01:01:43.378, True, 2.984, 0.132677
2023/06/18 01:01:43.882, True, 2.984, 0.133211
2023/06/18 01:01:44.378, True, 2.696, 0.131991
2023/06/18 01:01:44.882, True, 2.654, 0.133822
2023/06/18 01:01:45.386, True, 2.986, 0.133669
2023/06/18 01:01:45.882, True, 2.698, 0.133745
2023/06/18 01:01:46.386, True, 2.647, 0.133135
2023/06/18 01:01:46.890, True, 2.653, 0.133516
2023/06/18 01:01:47.386, True, 2.695, 0.133135
2023/06/18 01:01:47.890, True, 2.657, 0.133974
2023/06/18 01:01:48.386, True, 2.693, 0.133516
2023/06/18 01:01:48.890, True, 2.983, 0.133211
2023/06/18 01:01:49.394, True, 2.653, 0.132601
2023/06/18 01:01:49.898, True, 2.653, 0.134585
2023/06/18 01:01:50.394, True, 2.699, 0.135576
2023/06/18 01:01:50.898, True, 2.982, 0.133364
2023/06/18 01:01:51.402, True, 2.651, 0.135882
2023/06/18 01:01:51.898, True, 2.696, 0.132982
2023/06/18 01:01:52.402, True, 2.653, 0.135119
2023/06/18 01:01:52.906, True, 2.985, 0.134890
2023/06/18 01:01:53.402, True, 2.695, 0.135042
2023/06/18 01:01:53.906, True, 2.653, 0.134661
2023/06/18 01:01:54.410, True, 2.984, 0.134432
2023/06/18 01:01:54.906, True, 2.696, 0.133822
2023/06/18 01:01:55.410, True, 2.653, 0.131304
2023/06/18 01:01:55.914, True, 2.652, 0.134432
2023/06/18 01:01:56.410, True, 3.032, 0.133364
2023/06/18 01:01:56.914, True, 2.655, 0.133822
2023/06/18 01:01:57.418, True, 2.982, 0.132601
2023/06/18 01:01:57.914, True, 2.696, 0.134737
2023/06/18 01:01:58.418, True, 2.652, 0.134890
2023/06/18 01:01:58.922, True, 2.653, 0.132067
2023/06/18 01:01:59.418, True, 3.033, 0.133516
2023/06/18 01:01:59.922, True, 2.653, 0.132525
2023/06/18 01:02:00.426, True, 2.653, 0.134127
2023/06/18 01:02:00.922, True, 3.032, 0.133288
2023/06/18 01:02:01.426, True, 2.655, 0.134813
2023/06/18 01:02:01.930, True, 2.982, 0.133974
2023/06/18 01:02:02.434, True, 2.652, 0.133364
2023/06/18 01:02:02.930, True, 2.696, 0.134051
2023/06/18 01:02:03.434, True, 2.985, 0.132601
2023/06/18 01:02:03.938, True, 2.656, 0.132601
2023/06/18 01:02:04.434, True, 2.691, 0.133288
2023/06/18 01:02:04.938, True, 2.984, 0.132219
2023/06/18 01:02:05.442, True, 2.653, 0.132372
2023/06/18 01:02:05.938, True, 2.696, 0.135119
2023/06/18 01:02:06.442, True, 2.985, 0.132677
2023/06/18 01:02:06.946, True, 2.653, 0.134127
2023/06/18 01:02:07.442, True, 2.695, 0.134279
2023/06/18 01:02:07.946, True, 2.984, 0.133135
2023/06/18 01:02:08.450, True, 2.653, 0.133593
2023/06/18 01:02:08.946, True, 2.696, 0.132067
2023/06/18 01:02:09.450, True, 2.985, 0.131380
2023/06/18 01:02:09.954, True, 2.653, 0.132296
2023/06/18 01:02:10.450, True, 2.695, 0.134508
2023/06/18 01:02:10.954, True, 2.985, 0.132219
2023/06/18 01:02:11.458, True, 2.658, 0.131762
2023/06/18 01:02:11.954, True, 2.690, 0.133974
2023/06/18 01:02:12.458, True, 2.985, 0.132219
2023/06/18 01:02:12.962, True, 2.652, 0.133364
2023/06/18 01:02:13.458, True, 2.696, 0.132296
2023/06/18 01:02:13.962, True, 2.987, 0.133974
2023/06/18 01:02:14.465, True, 2.651, 0.132677
2023/06/18 01:02:14.962, True, 2.697, 0.132525
2023/06/18 01:02:15.466, True, 2.985, 0.133059
2023/06/18 01:02:15.970, True, 2.651, 0.134813
2023/06/18 01:02:16.466, True, 2.696, 0.135271
2023/06/18 01:02:16.970, True, 2.984, 0.132830
2023/06/18 01:02:17.474, True, 2.653, 0.130617
2023/06/18 01:02:17.970, True, 2.696, 0.130541
2023/06/18 01:02:18.474, True, 2.652, 0.132448
2023/06/18 01:02:18.978, True, 2.985, 0.131456
2023/06/18 01:02:19.474, True, 2.696, 0.133516
2023/06/18 01:02:19.978, True, 2.653, 0.132372
2023/06/18 01:02:20.482, True, 2.985, 0.132067
2023/06/18 01:02:20.978, True, 2.696, 0.132525
2023/06/18 01:02:21.482, True, 2.652, 0.134203
2023/06/18 01:02:21.986, True, 2.654, 0.131380
2023/06/18 01:02:22.482, True, 2.696, 0.132525
2023/06/18 01:02:22.986, True, 2.984, 0.132982
2023/06/18 01:02:23.490, True, 2.653, 0.132448
2023/06/18 01:02:23.986, True, 2.697, 0.131380
2023/06/18 01:02:24.490, True, 2.651, 0.134203
2023/06/18 01:02:24.994, True, 2.987, 0.130999
2023/06/18 01:02:25.498, True, 2.654, 0.129778
2023/06/18 01:02:25.994, True, 2.694, 0.132982
2023/06/18 01:02:26.498, True, 2.651, 0.132601
2023/06/18 01:02:27.002, True, 2.988, 0.130694
2023/06/18 01:02:27.498, True, 2.697, 0.132143
2023/06/18 01:02:28.002, True, 2.648, 0.130159
2023/06/18 01:02:28.506, True, 2.653, 0.130236
2023/06/18 01:02:29.002, True, 2.695, 0.132448
2023/06/18 01:02:29.506, True, 2.656, 0.132753
2023/06/18 01:02:30.010, True, 2.981, 0.131304
2023/06/18 01:02:30.506, True, 2.696, 0.132143
2023/06/18 01:02:31.009, True, 2.656, 0.132525
2023/06/18 01:02:31.514, True, 2.649, 0.130999
2023/06/18 01:02:32.010, True, 2.696, 0.132067
2023/06/18 01:02:32.514, True, 2.653, 0.131228
2023/06/18 01:02:33.018, True, 2.657, 0.132830
2023/06/18 01:02:33.514, True, 3.028, 0.130388
2023/06/18 01:02:34.018, True, 2.652, 0.130159
2023/06/18 01:02:34.522, True, 2.656, 0.132601
2023/06/18 01:02:35.018, True, 3.028, 0.131685
2023/06/18 01:02:35.522, True, 2.653, 0.131685
2023/06/18 01:02:36.026, True, 2.654, 0.131380
2023/06/18 01:02:36.530, True, 2.986, 0.130922
2023/06/18 01:02:37.026, True, 2.693, 0.133288
2023/06/18 01:02:37.530, True, 2.653, 0.131991
2023/06/18 01:02:38.034, True, 2.652, 0.132830
2023/06/18 01:02:38.530, True, 2.696, 0.131914
2023/06/18 01:02:39.034, True, 2.984, 0.132677
2023/06/18 01:02:39.530, True, 2.696, 0.131304
2023/06/18 01:02:40.034, True, 2.653, 0.129320
2023/06/18 01:02:40.538, True, 2.984, 0.133745
2023/06/18 01:02:41.034, True, 2.698, 0.130007
2023/06/18 01:02:41.538, True, 2.651, 0.131685
2023/06/18 01:02:42.042, True, 2.987, 0.132525
2023/06/18 01:02:42.538, True, 2.696, 0.132601
2023/06/18 01:02:43.042, True, 2.651, 0.132219
2023/06/18 01:02:43.546, True, 2.653, 0.131456
2023/06/18 01:02:44.042, True, 2.696, 0.131380
2023/06/18 01:02:44.546, True, 2.652, 0.132525
2023/06/18 01:02:45.050, True, 2.653, 0.133593
2023/06/18 01:02:45.546, True, 2.696, 0.130922
2023/06/18 01:02:46.050, True, 2.653, 0.130465
2023/06/18 01:02:46.554, True, 2.653, 0.132906
2023/06/18 01:02:47.050, True, 2.695, 0.131914
2023/06/18 01:02:47.554, True, 2.984, 0.132677
2023/06/18 01:02:48.058, True, 2.652, 0.132372
2023/06/18 01:02:48.554, True, 2.697, 0.131609
2023/06/18 01:02:49.058, True, 2.984, 0.131075
2023/06/18 01:02:49.561, True, 2.653, 0.131228
2023/06/18 01:02:50.058, True, 2.695, 0.131456
2023/06/18 01:02:50.562, True, 2.653, 0.132830
2023/06/18 01:02:51.066, True, 2.653, 0.133211
2023/06/18 01:02:51.562, True, 2.696, 0.131762
2023/06/18 01:02:52.066, True, 2.653, 0.131456
2023/06/18 01:02:52.570, True, 2.652, 0.133211
2023/06/18 01:02:53.066, True, 2.696, 0.131075
2023/06/18 01:02:53.569, True, 2.984, 0.133669
2023/06/18 01:02:54.074, True, 2.653, 0.131533
2023/06/18 01:02:54.570, True, 2.695, 0.131380
2023/06/18 01:02:55.074, True, 2.985, 0.132906
2023/06/18 01:02:55.570, True, 2.695, 0.132296
2023/06/18 01:02:56.074, True, 2.655, 0.131456
2023/06/18 01:02:56.578, True, 2.981, 0.132830
2023/06/18 01:02:57.082, True, 2.653, 0.131304
2023/06/18 01:02:57.578, True, 2.696, 0.131609
2023/06/18 01:02:58.082, True, 2.984, 0.132067
2023/06/18 01:02:58.586, True, 2.653, 0.132830
2023/06/18 01:02:59.082, True, 2.696, 0.131762
2023/06/18 01:02:59.586, True, 2.653, 0.130236
2023/06/18 01:03:00.090, True, 2.653, 0.130999
2023/06/18 01:03:00.585, True, 3.032, 0.130770
2023/06/18 01:03:01.090, True, 2.653, 0.131151
2023/06/18 01:03:01.593, True, 2.653, 0.129854
2023/06/18 01:03:02.090, True, 2.696, 0.131151
2023/06/18 01:03:02.594, True, 2.988, 0.131685
2023/06/18 01:03:03.098, True, 2.649, 0.130465
2023/06/18 01:03:03.593, True, 2.702, 0.131838
2023/06/18 01:03:04.098, True, 2.648, 0.130999
2023/06/18 01:03:04.593, True, 2.701, 0.130159
2023/06/18 01:03:05.097, True, 2.978, 0.131685
2023/06/18 01:03:05.602, True, 2.653, 0.129854
2023/06/18 01:03:06.098, True, 2.695, 0.131991
2023/06/18 01:03:06.602, True, 2.654, 0.132982
2023/06/18 01:03:07.106, True, 2.984, 0.132219
2023/06/18 01:03:07.602, True, 2.696, 0.132830
2023/06/18 01:03:08.106, True, 2.984, 0.132753
2023/06/18 01:03:08.610, True, 2.653, 0.131380
2023/06/18 01:03:09.106, True, 2.695, 0.130694
2023/06/18 01:03:09.609, True, 2.985, 0.130999
2023/06/18 01:03:10.114, True, 2.653, 0.131228
2023/06/18 01:03:10.618, True, 2.656, 0.130465
2023/06/18 01:03:11.114, True, 3.028, 0.131762
2023/06/18 01:03:11.618, True, 2.653, 0.133211
2023/06/18 01:03:12.122, True, 2.653, 0.132219
2023/06/18 01:03:12.618, True, 3.032, 0.130236
2023/06/18 01:03:13.122, True, 2.653, 0.131456
2023/06/18 01:03:13.626, True, 2.658, 0.131762
2023/06/18 01:03:14.122, True, 3.028, 0.132525
2023/06/18 01:03:14.626, True, 2.651, 0.129473
2023/06/18 01:03:15.130, True, 2.653, 0.133059
2023/06/18 01:03:15.626, True, 2.695, 0.131380
2023/06/18 01:03:16.130, True, 2.653, 0.132601
2023/06/18 01:03:16.634, True, 2.652, 0.132296
2023/06/18 01:03:17.138, True, 2.653, 0.131456
2023/06/18 01:03:17.634, True, 2.696, 0.130236
2023/06/18 01:03:18.138, True, 2.653, 0.131914
2023/06/18 01:03:18.641, True, 2.652, 0.132372
2023/06/18 01:03:19.138, True, 2.696, 0.131991
2023/06/18 01:03:19.642, True, 2.984, 0.130922
2023/06/18 01:03:20.146, True, 2.653, 0.130999
2023/06/18 01:03:20.650, True, 2.985, 0.129091
2023/06/18 01:03:21.146, True, 2.696, 0.129702
2023/06/18 01:03:21.650, True, 2.652, 0.131533
2023/06/18 01:03:22.154, True, 2.653, 0.131991
2023/06/18 01:03:22.650, True, 2.695, 0.130236
2023/06/18 01:03:23.154, True, 2.653, 0.130007
2023/06/18 01:03:23.658, True, 2.984, 0.131609
2023/06/18 01:03:24.154, True, 2.695, 0.130617
2023/06/18 01:03:24.658, True, 2.653, 0.131228
2023/06/18 01:03:25.162, True, 2.657, 0.131609
2023/06/18 01:03:25.658, True, 2.692, 0.130388
2023/06/18 01:03:26.161, True, 2.984, 0.132143
2023/06/18 01:03:26.666, True, 2.653, 0.131533
2023/06/18 01:03:27.162, True, 2.696, 0.129320
2023/06/18 01:03:27.666, True, 2.984, 0.131075
2023/06/18 01:03:28.170, True, 2.655, 0.132677
2023/06/18 01:03:28.666, True, 2.692, 0.131609
2023/06/18 01:03:29.170, True, 2.653, 0.131838
2023/06/18 01:03:29.674, True, 2.984, 0.131838
2023/06/18 01:03:30.170, True, 2.696, 0.132067
2023/06/18 01:03:30.674, True, 2.652, 0.130007
2023/06/18 01:03:31.178, True, 2.985, 0.133211
2023/06/18 01:03:31.674, True, 2.695, 0.130617
2023/06/18 01:03:32.178, True, 2.987, 0.131609
2023/06/18 01:03:32.682, True, 2.651, 0.131838
2023/06/18 01:03:33.178, True, 2.695, 0.130083
2023/06/18 01:03:33.682, True, 2.984, 0.128634
2023/06/18 01:03:34.178, True, 2.697, 0.130541
2023/06/18 01:03:34.682, True, 2.652, 0.132982
2023/06/18 01:03:35.186, True, 2.652, 0.131304
2023/06/18 01:03:35.682, True, 3.033, 0.130999
2023/06/18 01:03:36.186, True, 2.652, 0.131151
2023/06/18 01:03:36.690, True, 2.653, 0.131685
2023/06/18 01:03:37.186, True, 2.696, 0.131991
2023/06/18 01:03:37.690, True, 2.652, 0.131838
2023/06/18 01:03:38.194, True, 2.653, 0.130922
2023/06/18 01:03:38.690, True, 3.033, 0.130083
2023/06/18 01:03:39.194, True, 2.986, 0.129397
2023/06/18 01:03:39.690, True, 2.694, 0.129931
2023/06/18 01:03:40.194, True, 2.653, 0.132372
2023/06/18 01:03:40.698, True, 2.652, 0.130999
2023/06/18 01:03:41.194, True, 3.033, 0.132448
2023/06/18 01:03:41.698, True, 2.652, 0.130617
2023/06/18 01:03:42.194, True, 3.033, 0.130541
2023/06/18 01:03:42.698, True, 2.653, 0.130159
2023/06/18 01:03:43.202, True, 2.653, 0.131304
2023/06/18 01:03:43.698, True, 3.032, 0.129778
2023/06/18 01:03:44.202, True, 2.653, 0.131609
2023/06/18 01:03:44.706, True, 2.653, 0.129244
2023/06/18 01:03:45.202, True, 2.695, 0.131762
2023/06/18 01:03:45.705, True, 2.656, 0.131228
2023/06/18 01:03:46.210, True, 2.650, 0.130388
2023/06/18 01:03:46.706, True, 2.696, 0.129397
2023/06/18 01:03:47.210, True, 2.653, 0.129778
2023/06/18 01:03:47.714, True, 2.985, 0.130541
2023/06/18 01:03:48.210, True, 2.696, 0.130770
2023/06/18 01:03:48.714, True, 2.653, 0.132830
2023/06/18 01:03:49.218, True, 2.653, 0.131838
2023/06/18 01:03:49.722, True, 2.653, 0.128786
2023/06/18 01:03:50.217, True, 2.700, 0.133288
2023/06/18 01:03:50.722, True, 2.648, 0.129702
2023/06/18 01:03:51.226, True, 2.984, 0.132448
2023/06/18 01:03:51.721, True, 2.359, 0.130999
2023/06/18 01:03:52.225, True, 2.653, 0.131762
2023/06/18 01:03:52.729, True, 2.985, 0.132830
2023/06/18 01:03:53.226, True, 2.695, 0.130922
2023/06/18 01:03:53.729, True, 2.653, 0.129091
2023/06/18 01:03:54.234, True, 2.652, 0.130770
2023/06/18 01:03:54.729, True, 2.699, 0.133059
2023/06/18 01:03:55.234, True, 2.651, 0.128328
2023/06/18 01:03:55.738, True, 2.982, 0.130236
2023/06/18 01:03:56.234, True, 2.696, 0.130846
2023/06/18 01:03:56.737, True, 2.658, 0.130007
2023/06/18 01:03:57.242, True, 2.648, 0.130312
2023/06/18 01:03:57.737, True, 2.696, 0.129931
2023/06/18 01:03:58.242, True, 2.990, 0.130465
2023/06/18 01:03:58.746, True, 2.653, 0.131075
2023/06/18 01:03:59.242, True, 2.690, 0.129091
2023/06/18 01:03:59.746, True, 2.658, 0.130465
2023/06/18 01:04:00.249, True, 2.980, 0.131991
2023/06/18 01:04:00.745, True, 2.695, 0.130922
2023/06/18 01:04:01.250, True, 2.652, 0.129015
2023/06/18 01:04:01.746, True, 2.696, 0.130999
2023/06/18 01:04:02.249, True, 2.987, 0.130922
2023/06/18 01:04:02.754, True, 2.650, 0.128786
2023/06/18 01:04:03.258, True, 2.653, 0.131228
2023/06/18 01:04:03.754, True, 3.037, 0.129244
2023/06/18 01:04:04.258, True, 2.652, 0.131151
2023/06/18 01:04:04.762, True, 2.650, 0.130922
2023/06/18 01:04:05.258, True, 2.695, 0.130159
2023/06/18 01:04:05.762, True, 2.653, 0.130312
2023/06/18 01:04:06.266, True, 2.653, 0.129244
2023/06/18 01:04:06.762, True, 2.696, 0.129473
2023/06/18 01:04:07.266, True, 2.652, 0.130388
2023/06/18 01:04:07.770, True, 2.321, 0.130465
2023/06/18 01:04:08.266, True, 2.695, 0.129397
2023/06/18 01:04:08.769, True, 2.653, 0.128481
2023/06/18 01:04:09.274, True, 2.984, 0.130236
2023/06/18 01:04:09.778, True, 2.656, 0.133745